Home   Weather   Geretsried   Past weeks

Flag for Germany Past Weather in Geretsried, Bavaria, Germany — Yesterday and Last 2 Weeks

Now
34 °F

Light snow. Low clouds.


Feels Like: 34 °F
Forecast: 29 / 51 °F
Wind: 1 mph from North

Location: Oberpfaffenhofen

Current Time: Apr 28, 2017 at 10:47:47 am

Latest Report: Apr 28, 2017 at 10:20 am


Visibility: 1 mi

Pressure: 29.83 "Hg (27.65 "Hg at 609m altitude)

Humidity: 93%

Dew Point: 32 °F

Location of GeretsriedLocation

Past Weather in Geretsried — Graph

°F

Geretsried Temperature Yesterday

Maximum temperature yesterday: 39 °F (at 2:20 pm)
Minimum temperature yesterday: 32 °F (at 6:50 am)
Average temperature yesterday: 36 °F

High & Low Weather Summary for the Past Weeks

 TemperatureHumidityPressure
High63 °F (Apr 24, 6:20 pm)100% (Apr 18, 6:50 am)30.51 "Hg (Apr 18, 6:50 am)
Low25 °F (Apr 21, 6:50 am)32% (Apr 21, 5:20 pm)29.71 "Hg (Apr 25, 5:20 pm)
Average42 °F73%30.08 "Hg
* Reported Apr 13 9:20 am — Apr 28 9:20 am, Geretsried, Weather by CustomWeather, © 2017

Note: Actual official high and low records may vary slightly from our data, if they occured in-between our weather recording intervals... More about our weather records

Advertising

Geretsried Weather History for the Previous 24 Hours

Scroll right to see more
 ConditionsComfort  
Time TempWeatherWind HumidityBarometerVisibility
9:20 am
Fri, Apr 28
32 °FLight snow. Low clouds.2 mph100%29.83 "Hg1 mi
8:50 am32 °FLight snow. Low clouds.3 mph100%29.83 "Hg1 mi
8:20 am32 °FLight snow. Low clouds.3 mph100%29.83 "Hg1 mi
7:50 am32 °FLight snow. Mostly cloudy.3 mph100%29.80 "Hg1 mi
7:20 am32 °FLight snow. Low clouds.2 mph100%29.80 "Hg1 mi
6:50 am32 °FLight snow. Low clouds.2 mph100%29.80 "Hg1 mi
7:50 pm
Thu, Apr 27
36 °FLight rain. Partly sunny.6 mph93%29.89 "Hg4 mi
7:20 pm36 °FLight rain. Partly sunny.8 mph93%29.89 "Hg4 mi
6:50 pm37 °FLight rain. Partly sunny.7 mph93%29.89 "Hg4 mi
6:20 pm37 °FLight rain. Partly sunny.8 mph93%29.92 "Hg4 mi
5:50 pm37 °FLight rain. Partly sunny.7 mph93%29.92 "Hg5 mi
5:20 pm37 °FLight rain. Partly sunny.7 mph93%29.92 "Hg4 mi
4:50 pm37 °FLight rain. Partly sunny.7 mph93%29.92 "Hg5 mi
4:20 pm39 °FLight rain. Partly sunny.7 mph87%29.92 "Hg5 mi
3:50 pm37 °FLight rain. Partly sunny.6 mph93%29.92 "Hg6 mi
3:20 pm39 °FLight rain. Partly sunny.5 mph87%29.92 "Hg6 mi
2:50 pm37 °FLight rain. Partly sunny.5 mph93%29.92 "Hg6 mi
2:20 pm39 °FLight rain. Partly sunny.3 mph87%29.92 "HgN/A
1:50 pm37 °FLight rain. Partly sunny.3 mph87%29.92 "Hg4 mi
1:20 pm37 °FLight rain. Partly sunny.1 mph87%29.92 "Hg4 mi
12:50 pm37 °FLight rain. Partly sunny.3 mph87%29.92 "Hg4 mi
12:20 pm36 °FLight rain. Partly sunny.3 mph93%29.95 "Hg4 mi
11:50 am36 °FLight rain. Partly sunny.3 mph93%29.92 "Hg4 mi
11:20 am36 °FLight rain. Fog.3 mph93%29.92 "Hg3 mi
10:50 am34 °FLight rain. Fog.6 mph100%29.92 "Hg3 mi
10:20 am34 °FLight snow. Fog.3 mph100%29.92 "Hg2 mi
Weather by CustomWeather, © 2017

See weather overviewHow to use our weather pages